TOM712 EGFF-HESH

Flight info

Callsign TOM712
Flight time N/A
Altitude 33000
Route LEKCI DCT SAWPE Q63 CPT UL9 BIG L607 KONAN UL607 KOK M150 KOMOB/N0460F350 M150 GEBDA/N0461F340 Y173 PABLA/N0459F350 Z721 UTABA L607 ELMEM N606 OTRES T307 DIRAB DCT ROTAR DCT SONIK DCT PODOB DCT MEDUX UM867 KOGAT DCT ERANA UL737 TSL UN130 ESOPO/N0465F370 UN130 MES UL609 RDS UL995 VANZA N134 SAFTA L324 LAKTO L560 VUTAR
Aircraft B738/M-SDE2E3FGHIRWXY/LB1

Departure

Time 2026-05-04 08:57
Airport Cardiff International Airport (EGFF)

Arrival

Time N/A
Airport Sharm El Sheikh International Airport (HESH)
Time Latitude Longitude Altitude Speed Heading
2026-05-04 08:40 51.39765 -3.33846 220 ft 0 kts 81°
2026-05-04 08:47 51.39765 -3.33849 220 ft 2 kts 81°
2026-05-04 08:48 51.39761 -3.33890 220 ft 4 kts 81°
2026-05-04 08:48 51.39757 -3.33926 220 ft 4 kts 78°
2026-05-04 08:48 51.39752 -3.33951 220 ft 4 kts 44°
2026-05-04 08:48 51.39735 -3.33959 221 ft 4 kts 330°
2026-05-04 08:49 51.39719 -3.33929 221 ft 3 kts 297°
2026-05-04 08:50 51.39717 -3.33922 221 ft 0 kts 297°
2026-05-04 08:52 51.39720 -3.33932 221 ft 3 kts 297°
2026-05-04 08:52 51.39743 -3.34005 220 ft 12 kts 296°
2026-05-04 08:52 51.39793 -3.34164 220 ft 20 kts 298°
2026-05-04 08:52 51.39865 -3.34392 220 ft 24 kts 296°
2026-05-04 08:53 51.39944 -3.34633 221 ft 26 kts 300°
2026-05-04 08:54 51.40150 -3.35776 218 ft 5 kts 292°
2026-05-04 08:55 51.40152 -3.35794 218 ft 1 kts 269°
2026-05-04 08:55 51.40139 -3.35817 219 ft 4 kts 212°
2026-05-04 08:55 51.40118 -3.35815 219 ft 1 kts 155°
2026-05-04 08:55 51.40095 -3.35750 220 ft 17 kts 114°
2026-05-04 08:57 51.37025 -3.25815 2952 ft 220 kts 115°
2026-05-04 09:01 51.52392 -3.01776 12539 ft 300 kts 59°
2026-05-04 09:01 51.53538 -2.98990 13211 ft 304 kts 58°
2026-05-04 09:01 51.54720 -2.96130 13885 ft 309 kts 58°
2026-05-04 09:01 51.55945 -2.93168 14382 ft 319 kts 58°
2026-05-04 09:02 51.57110 -2.90043 14513 ft 338 kts 68°
2026-05-04 09:02 51.57838 -2.86355 14672 ft 355 kts 83°
2026-05-04 09:02 51.58020 -2.82253 14841 ft 372 kts 90°
2026-05-04 09:02 51.58049 -2.77985 14964 ft 391 kts 92°
2026-05-04 09:03 51.58042 -2.73537 15223 ft 403 kts 92°
2026-05-04 09:03 51.58037 -2.68948 15719 ft 407 kts 92°
2026-05-04 09:03 51.58046 -2.64374 16323 ft 409 kts 91°
2026-05-04 09:03 51.58066 -2.59815 16880 ft 412 kts 91°
2026-05-04 09:04 51.58097 -2.54883 17433 ft 416 kts 91°
2026-05-04 09:04 51.58130 -2.50217 17956 ft 419 kts 91°
2026-05-04 09:04 51.58165 -2.45519 18452 ft 423 kts 91°
2026-05-04 09:04 51.58200 -2.40707 18893 ft 426 kts 91°
2026-05-04 09:05 51.58223 -2.37453 19183 ft 429 kts 91°
2026-05-04 09:05 51.58255 -2.32667 19602 ft 432 kts 91°
2026-05-04 09:05 51.58285 -2.27744 20022 ft 436 kts 91°
2026-05-04 09:05 51.58313 -2.22851 20426 ft 440 kts 91°
2026-05-04 09:06 51.58339 -2.17836 20825 ft 443 kts 91°
2026-05-04 09:07 51.58471 -1.81652 23426 ft 469 kts 92°
2026-05-04 09:08 51.58483 -1.76337 23735 ft 472 kts 92°
2026-05-04 09:08 51.58489 -1.70897 24046 ft 474 kts 92°
2026-05-04 09:08 51.58274 -1.65624 24377 ft 473 kts 101°
2026-05-04 09:08 51.57562 -1.60462 24698 ft 470 kts 111°
2026-05-04 09:09 51.56409 -1.55196 25045 ft 471 kts 113°
2026-05-04 09:09 51.55261 -1.50121 25354 ft 472 kts 113°
2026-05-04 09:09 51.54166 -1.45183 25642 ft 474 kts 112°
2026-05-04 09:09 51.53078 -1.40144 25929 ft 476 kts 112°
2026-05-04 09:10 51.51991 -1.35063 26229 ft 477 kts 112°
2026-05-04 09:10 51.50915 -1.30017 26555 ft 478 kts 112°
2026-05-04 09:10 51.49820 -1.24913 26974 ft 476 kts 113°
2026-05-04 09:10 51.48831 -1.19810 27430 ft 476 kts 107°
2026-05-04 09:11 51.48184 -1.14637 27880 ft 476 kts 104°
2026-05-04 09:11 51.47602 -1.09413 28297 ft 475 kts 104°
2026-05-04 09:11 51.47203 -1.05896 28544 ft 474 kts 105°
2026-05-04 09:11 51.46589 -1.00707 28889 ft 473 kts 105°
2026-05-04 09:12 51.45946 -0.95540 29288 ft 472 kts 106°
2026-05-04 09:12 51.45280 -0.90303 29732 ft 470 kts 107°
2026-05-04 09:14 51.40706 -0.54527 31739 ft 469 kts 106°
2026-05-04 09:14 51.40043 -0.49384 31990 ft 469 kts 105°
2026-05-04 09:14 51.39375 -0.44225 32270 ft 468 kts 105°
2026-05-04 09:14 51.38613 -0.38351 32600 ft 468 kts 105°
2026-05-04 09:15 51.38011 -0.33736 32815 ft 468 kts 105°
2026-05-04 09:15 51.37340 -0.28592 33059 ft 468 kts 105°
2026-05-04 09:15 51.36635 -0.23210 33313 ft 468 kts 105°
2026-05-04 09:15 51.35952 -0.18041 33573 ft 468 kts 105°
2026-05-04 09:17 51.31386 0.20849 35112 ft 468 kts 101°
2026-05-04 09:18 51.30920 0.26055 35298 ft 468 kts 101°
2026-05-04 09:18 51.30453 0.31182 35484 ft 467 kts 101°
2026-05-04 09:18 51.29977 0.36293 35656 ft 467 kts 101°
2026-05-04 09:18 51.29482 0.41518 35824 ft 467 kts 101°
2026-05-04 09:19 51.28988 0.46644 35982 ft 467 kts 101°
2026-05-04 09:19 51.28493 0.51749 36157 ft 467 kts 101°
2026-05-04 09:19 51.27979 0.57014 36309 ft 467 kts 101°
2026-05-04 09:19 51.27480 0.62097 36465 ft 467 kts 101°
2026-05-04 09:20 51.26935 0.67619 36651 ft 467 kts 101°
2026-05-04 09:20 51.26454 0.72486 36820 ft 466 kts 101°
2026-05-04 09:20 51.25945 0.77606 36951 ft 467 kts 101°
2026-05-04 09:20 51.25433 0.82737 37000 ft 468 kts 102°
2026-05-04 09:21 51.24392 0.93092 37012 ft 469 kts 102°
2026-05-04 09:21 51.23354 1.03338 37014 ft 467 kts 102°
2026-05-04 09:22 51.22303 1.13612 37018 ft 465 kts 102°
2026-05-04 09:22 51.21229 1.24006 37014 ft 464 kts 102°
2026-05-04 09:23 51.20170 1.34170 37014 ft 463 kts 102°
2026-05-04 09:23 51.19108 1.44278 37007 ft 463 kts 103°
2026-05-04 09:25 51.14757 1.84842 36999 ft 463 kts 103°
2026-05-04 09:26 51.13645 1.95023 36998 ft 464 kts 103°
2026-05-04 09:26 51.12697 2.05291 37001 ft 466 kts 99°
2026-05-04 09:27 51.12178 2.15746 36996 ft 468 kts 97°
2026-05-04 09:27 51.11682 2.26084 36998 ft 469 kts 98°
2026-05-04 09:28 51.11127 2.36429 37003 ft 469 kts 98°
2026-05-04 09:28 51.10642 2.45108 36998 ft 470 kts 99°
2026-05-04 09:29 51.10055 2.55478 36996 ft 471 kts 99°
2026-05-04 09:29 51.09024 2.65687 36996 ft 465 kts 111°
2026-05-04 09:30 51.06395 2.74955 37003 ft 458 kts 122°
2026-05-04 09:30 51.03868 2.82339 36986 ft 459 kts 123°
2026-05-04 09:31 51.03056 2.84703 36989 ft 459 kts 123°
2026-05-04 09:31 51.00004 2.93671 36994 ft 459 kts 122°
2026-05-04 09:32 50.96990 3.02615 37005 ft 459 kts 122°
2026-05-04 09:34 50.84967 3.38177 36987 ft 456 kts 123°
2026-05-04 09:34 50.81954 3.47006 36985 ft 456 kts 123°
2026-05-04 09:35 50.78927 3.55844 36986 ft 455 kts 123°
2026-05-04 09:35 50.75897 3.64662 36991 ft 455 kts 123°
2026-05-04 09:37 50.63727 3.99775 36996 ft 455 kts 123°
2026-05-04 09:38 50.60692 4.08459 37001 ft 455 kts 124°
2026-05-04 09:38 50.57616 4.17227 37021 ft 455 kts 124°
2026-05-04 09:39 50.54523 4.26013 37010 ft 455 kts 124°
2026-05-04 09:39 50.51445 4.34726 37035 ft 456 kts 124°
2026-05-04 09:40 50.48358 4.43437 37028 ft 457 kts 124°
2026-05-04 09:40 50.45259 4.52149 37013 ft 457 kts 124°
2026-05-04 09:42 50.32792 4.86914 37010 ft 456 kts 124°
2026-05-04 09:43 50.29663 4.95565 37018 ft 456 kts 124°
2026-05-04 09:43 50.26526 5.04211 37006 ft 457 kts 125°
2026-05-04 09:44 50.23382 5.12848 37007 ft 457 kts 125°
2026-05-04 09:46 50.10678 5.47434 37010 ft 459 kts 125°
2026-05-04 09:46 50.07481 5.56031 37010 ft 460 kts 125°
2026-05-04 09:47 50.04275 5.64642 37012 ft 460 kts 125°
2026-05-04 09:49 49.91260 5.99344 37009 ft 463 kts 125°
2026-05-04 09:51 49.80845 6.28397 37012 ft 461 kts 122°
2026-05-04 09:51 49.77913 6.37164 37017 ft 460 kts 123°
2026-05-04 09:52 49.74934 6.45929 37015 ft 460 kts 123°
2026-05-04 09:52 49.71942 6.54676 37012 ft 460 kts 123°
2026-05-04 09:53 49.68935 6.63402 37010 ft 460 kts 123°
2026-05-04 09:53 49.65919 6.72134 37007 ft 460 kts 123°
2026-05-04 09:54 49.62898 6.80863 37013 ft 460 kts 123°
2026-05-04 09:54 49.59851 6.89645 37008 ft 461 kts 123°